Tracking 26922 objects as of 30-Jan-2023
HD Live streaming from Space Station
objects crossing your sky now

ONEWEB-0512

Track ONEWEB-0512 now!
10-day predictions
ONEWEB-0512 is classified as:


NORAD ID: 54130
Int'l Code: 2022-138T
Perigee: 1,195.2 km
Apogee: 1,198.0 km
Inclination: 87.9 °
Period: 109.2 minutes
Semi major axis: 7567 km
RCS: Unknown
Launch date: October 22, 2022
Source: United Kingdom (UK)
Launch site: SRIHARIKOTA (SRI)
Your satellite tracking list
Your tracking list is empty




NASA's NSSDC Master Catalog

Two Line Element Set (TLE):
1 54130U 22138T   23030.25002315  .00000013  00000-0  00000+0 0  9998
2 54130  87.9419 190.3109 0001875  89.2858 327.7442 13.18758527 14929
Source of the keplerian elements: AFSPC